[[{"header":{"parameterUnit":"m.s-1","parameterCategory":1,"la1":30.2991,"la2":30.254,"lo1":-89.0895,"lo2":-89.0444,"dy":0.0017,"dx":0.0017,"nx":28,"ny":28,"refTime":"2024-04-22T21:00:00:Z","depth":0,"parameterNumber":2,"parameterNumberName":"U-component_of_WINDS"},"data":[0,0,0,0,0,0,0,0,0,0,0,0,0,0,0,0,0,0,0,0,0,0,0,0,0,0,0,0,0,0,0,0,0,0,0,0,0,0,0,0,0,0,0,0,0,0,0,0,0,0,0,0,0,0,0,0,0,0,-2.1941,-2.1941,0,-2.1987,-2.1987,-2.1988,-2.1938,-2.1936,-2.1934,-2.1932,-2.1979,-2.1982,-2.1985,0,0,0,0,0,0,0,0,0,0,0,0,0,-2.1807,-2.1809,-2.194,-2.1941,-2.1942,-2.1987,-2.1987,-2.1988,-2.1938,-2.1936,-2.1933,-2.1931,-2.1978,-2.1981,-2.1985,0,0,0,0,0,0,0,0,0,0,0,0,0,-2.186,-2.181,-2.194,-2.1922,-2.1921,-2.1987,-2.1987,-2.1988,-2.1939,-2.1936,-2.1933,-2.193,-2.1976,-2.1981,-2.1985,-2.2071,0,0,-2.1999,-2.2001,0,0,0,0,0,0,0,0,-2.1857,-2.1865,-2.1924,-2.1924,-2.1922,-2.1954,-2.1957,-2.2016,-2.1939,-2.1932,-2.1932,-2.1929,-2.1973,-2.1977,-2.1992,-2.2073,-2.2075,-2.2,-2.2002,-2.2004,-2.2006,0,0,0,0,0,0,0,-2.1854,-2.1863,-2.1959,-2.1925,-2.1924,-2.1911,-2.1915,-2.1968,-2.1968,-2.1932,-2.1929,-2.1935,-2.1971,-2.1988,-2.1993,-2.2076,-2.2,-2.2004,-2.2006,-2.2008,-2.2227,-2.223,0,0,0,0,0,0,-2.1852,-2.186,-2.1957,-2.196,-2.1882,-2.1916,-2.1921,-2.1946,-2.1967,-2.1967,-2.1937,-2.1933,-2.1982,-2.1988,-2.1994,-2.2094,-2.2004,-2.2009,-2.2011,-2.2224,-2.2228,-2.2231,0,0,0,0,0,0,-2.1849,-2.1861,-2.1955,-2.1909,-2.192,-2.1921,-2.195,-2.1949,-2.1965,-2.1971,-2.197,-2.1954,-2.198,-2.1988,-2.2052,-2.2095,-2.2011,-2.2015,-2.222,-2.2225,-2.2229,-2.2296,0,0,0,0,0,0,-2.1846,-2.1861,-2.1894,-2.191,-2.1923,-2.2013,-2.1953,-2.1952,-2.1973,-2.1967,-2.1987,-2.1987,-2.1978,-2.2045,-2.2056,-2.21,-2.2018,-2.2216,-2.2222,-2.2228,-2.2289,-2.2302,-2.2312,0,0,0,0,0,-2.1841,-2.1911,-2.1896,-2.1908,-2.1964,-2.2016,-2.2023,-2.2011,-2.1977,-2.201,-2.2013,-2.1987,-2.2089,-2.2052,-2.2064,-2.211,-2.2214,-2.2221,-2.2227,-2.2284,-2.2299,-2.2312,0,0,0,0,0,0,-2.1899,-2.1913,-2.1896,-2.1973,-2.1994,-2.2007,-2.2048,-2.2028,-2.2058,-2.2051,-2.2035,-2.204,-2.2107,-2.2115,-2.2074,-2.2193,-2.2146,-2.2155,-2.2185,-2.2199,-2.221,-2.2206,-2.2022,0,0,0,0,0,-2.1921,-2.1962,-2.1971,-2.2038,-2.2049,-2.2047,-2.2069,-2.2058,-2.2078,-2.2087,-2.2095,-2.2115,-2.2152,-2.2176,-2.221,-2.2291,-2.2293,-2.2328,-2.2339,-2.2349,-2.2357,-2.2398,-2.2413,-2.2254,-2.2254,-2.2254,0,0,-2.1966,-2.1978,-2.2005,-2.205,-2.2065,-2.2106,-2.2055,-2.2102,-2.2132,-2.2094,-2.2154,-2.2161,-2.2182,-2.2255,-2.2287,-2.2263,-2.2402,-2.2358,-2.2365,-2.2368,-2.2407,-2.2422,-2.2435,-2.2259,-2.2258,-2.2257,0,0,-2.2069,-2.2084,-2.214,-2.2156,-2.2178,-2.2176,-2.219,-2.2206,-2.2209,-2.227,-2.2241,-2.2277,-2.2341,-2.2357,-2.2374,-2.2482,-2.2458,-2.2494,-2.2553,-2.2594,-2.2606,-2.2617,-2.2654,-2.2667,-2.2502,-2.2502,-2.2502,0,-2.2122,-2.2184,-2.2171,-2.222,-2.224,-2.2207,-2.2264,-2.2279,-2.2312,-2.2326,-2.23,-2.2378,-2.239,-2.2465,-2.2491,-2.2506,-2.252,-2.2491,-2.2605,-2.2616,-2.2626,-2.2661,-2.2675,-2.2506,-2.2506,-2.2505,-2.2505,0,-2.2247,-2.2291,-2.2334,-2.2366,-2.2391,-2.2443,-2.2437,-2.2464,-2.2451,-2.2451,-2.2512,-2.2526,-2.2562,-2.2579,-2.2567,-2.2651,-2.2636,-2.2608,-2.256,-2.2646,-2.2678,-2.2691,-2.2512,-2.2511,-2.2509,-2.2508,0,0,-2.2388,-2.2411,-2.2427,-2.244,-2.2463,-2.2496,-2.2546,-2.2581,-2.2603,-2.2627,-2.2668,-2.2722,-2.2696,-2.2715,-2.2704,-2.274,-2.2823,-2.2708,-2.2708,-2.2727,-2.2914,-2.2934,-2.2949,-2.2808,-2.281,-2.2812,-2.2912,0,-2.249,-2.2577,-2.2566,-2.2649,-2.2688,-2.2658,-2.2701,-2.2719,-2.2721,-2.2754,-2.2756,-2.2794,-2.2758,-2.2769,-2.2803,-2.2806,-2.286,-2.2799,-2.2844,-2.2846,-2.2837,-2.2967,-2.2987,-2.3081,-2.2924,-2.2927,-2.2928,0,-2.262,-2.2648,-2.2735,-2.275,-2.2766,-2.2805,-2.2835,-2.2868,-2.2887,-2.2886,-2.2906,-2.2889,-2.2939,-2.2891,-2.2958,-2.2916,-2.2934,-2.2939,-2.2942,-2.2944,-2.2891,-2.297,-2.311,-2.3123,-2.2948,-2.2947,-2.2945,0,-2.2711,-2.277,-2.2829,-2.2842,-2.2862,-2.289,-2.2899,-2.2916,-2.2937,-2.2963,-2.2976,-2.3009,-2.3026,-2.3051,-2.3042,-2.3009,-2.311,-2.3062,-2.3109,-2.3109,-2.313,-2.3128,-2.3273,-2.3145,-2.3145,-2.3145,-2.3145,0,-2.2825,-2.2878,-2.287,-2.2906,-2.2965,-2.2953,-2.3011,-2.3017,-2.3032,-2.3067,-2.3044,-2.3078,-2.3066,-2.3099,-2.3093,-2.3148,-2.3157,-2.3156,-2.3153,-2.3157,-2.3157,-2.3167,-2.316,-2.3149,-2.3148,-2.3147,-2.3146,0,-2.2935,-2.2932,-2.2994,-2.3008,-2.3012,-2.3055,-2.3066,-2.3099,-2.3099,-2.3145,-2.3155,-2.3155,-2.3192,-2.3187,-2.3229,-2.3225,-2.3293,-2.3284,-2.3286,-2.3283,-2.3329,-2.3324,-2.3484,-2.3503,-2.3365,-2.3366,-2.3368,0,-2.3007,-2.3048,-2.3065,-2.3088,-2.3099,-2.3136,-2.3157,-2.3146,-2.3169,-2.3193,-2.3223,-2.3259,-2.3287,-2.3349,-2.3352,-2.3383,-2.3373,-2.3427,-2.3378,-2.3379,-2.3371,-2.3368,-2.3371,-2.3436,-2.3438,-2.3439,-2.344,0,-2.3134,-2.313,-2.3162,-2.3193,-2.3219,-2.3243,-2.3264,-2.3284,-2.3275,-2.3302,-2.334,-2.3362,-2.3404,-2.3439,-2.3469,-2.3478,-2.3457,-2.3456,-2.3468,-2.3471,-2.347,-2.3469,-2.331,-2.3452,-2.345,-2.345,-2.3449,-2.3448,-2.3226,-2.326,-2.3277,-2.3313,-2.3328,-2.3348,-2.338,-2.3383,-2.3415,-2.3449,-2.3441,-2.3483,-2.3501,-2.3538,-2.355,-2.3583,-2.3563,-2.3581,-2.3585,-2.3589,-2.3594,-2.3466,-2.3589,-2.3588,-2.3588,-2.3588,-2.3588,0,-2.335,-2.3359,-2.3392,-2.3423,-2.3451,-2.3429,-2.3452,-2.3476,-2.3514,-2.3532,-2.356,-2.3603,-2.3637,-2.3643,-2.3674,-2.3699,-2.369,-2.3708,-2.3705,-2.3707,-2.3611,-2.3596,-2.3714,-2.3714,-2.3714,-2.3714,-2.3714,-2.3714,-2.3417,-2.3473,-2.3471,-2.3533,-2.3542,-2.3584,-2.3598,-2.3617,-2.3631,-2.368,-2.3708,-2.3712,-2.3724,-2.3757,-2.3786,-2.3787,-2.3799,-2.382,-2.3817,-2.3727,-2.3714,-2.3702,-2.3688,-2.3823,-2.3823,-2.3909,-2.391,-2.3911]},{"header":{"parameterUnit":"m.s-1","parameterCategory":1,"la1":30.2991,"la2":30.254,"lo1":-89.0895,"lo2":-89.0444,"dy":0.0017,"dx":0.0017,"nx":28,"ny":28,"refTime":"2024-04-22T21:00:00:Z","depth":0,"parameterNumber":3,"parameterNumberName":"V-component_of_WINDS"},"data":[0,0,0,0,0,0,0,0,0,0,0,0,0,0,0,0,0,0,0,0,0,0,0,0,0,0,0,0,0,0,0,0,0,0,0,0,0,0,0,0,0,0,0,0,0,0,0,0,0,0,0,0,0,0,0,0,0,0,-2.1435,-2.1435,0,-2.1474,-2.1475,-2.1475,-2.1461,-2.146,-2.146,-2.1459,-2.1499,-2.1501,-2.1503,0,0,0,0,0,0,0,0,0,0,0,0,0,-2.1345,-2.1347,-2.1435,-2.1435,-2.1436,-2.1474,-2.1475,-2.1475,-2.1461,-2.146,-2.1459,-2.1458,-2.1498,-2.15,-2.1503,0,0,0,0,0,0,0,0,0,0,0,0,0,-2.1384,-2.1348,-2.1434,-2.1433,-2.1434,-2.1474,-2.1475,-2.1475,-2.1462,-2.146,-2.1459,-2.1458,-2.1497,-2.15,-2.1503,-2.1547,0,0,-2.1512,-2.1513,0,0,0,0,0,0,0,0,-2.1382,-2.1388,-2.1433,-2.1433,-2.1434,-2.1461,-2.1458,-2.1499,-2.1462,-2.1451,-2.1459,-2.1457,-2.1487,-2.1491,-2.1501,-2.1549,-2.155,-2.1512,-2.1514,-2.1515,-2.1516,0,0,0,0,0,0,0,-2.138,-2.1386,-2.145,-2.1434,-2.1434,-2.143,-2.1434,-2.1466,-2.1476,-2.1452,-2.1451,-2.1456,-2.1487,-2.1499,-2.1502,-2.1551,-2.1512,-2.1514,-2.1516,-2.1517,-2.1635,-2.1636,0,0,0,0,0,0,-2.1377,-2.1384,-2.1449,-2.1451,-2.1404,-2.1433,-2.1438,-2.1454,-2.1476,-2.1478,-2.1457,-2.1455,-2.1494,-2.1499,-2.1504,-2.1555,-2.1515,-2.1517,-2.1519,-2.1634,-2.1635,-2.1637,0,0,0,0,0,0,-2.1375,-2.1383,-2.1447,-2.1417,-2.1425,-2.1436,-2.1454,-2.1455,-2.1467,-2.148,-2.1481,-2.1467,-2.1494,-2.15,-2.1536,-2.1557,-2.1519,-2.1521,-2.1632,-2.1634,-2.1636,-2.166,0,0,0,0,0,0,-2.1372,-2.1382,-2.1399,-2.1418,-2.1427,-2.148,-2.1456,-2.1457,-2.1472,-2.147,-2.1489,-2.1491,-2.1493,-2.1532,-2.1539,-2.156,-2.1524,-2.163,-2.1633,-2.1635,-2.1657,-2.1663,-2.1667,0,0,0,0,0,-2.1369,-2.1405,-2.14,-2.1408,-2.1449,-2.1481,-2.1486,-2.1488,-2.1473,-2.149,-2.1498,-2.149,-2.1553,-2.1536,-2.1543,-2.1566,-2.1629,-2.1632,-2.1635,-2.1655,-2.1662,-2.1667,0,0,0,0,0,0,-2.1388,-2.1407,-2.1402,-2.1445,-2.1461,-2.1478,-2.15,-2.1495,-2.1515,-2.1513,-2.1514,-2.1518,-2.1555,-2.1564,-2.1544,-2.1608,-2.1589,-2.1594,-2.1601,-2.1607,-2.1612,-2.1609,-2.1526,0,0,0,0,0,-2.1397,-2.1422,-2.1437,-2.1473,-2.1482,-2.1489,-2.1504,-2.1503,-2.152,-2.1527,-2.1538,-2.1555,-2.1578,-2.1593,-2.1616,-2.1659,-2.1662,-2.1678,-2.1682,-2.1686,-2.169,-2.1713,-2.1719,-2.1647,-2.1647,-2.1647,0,0,-2.1416,-2.143,-2.1445,-2.1477,-2.149,-2.1515,-2.1495,-2.1523,-2.1541,-2.1531,-2.1566,-2.1575,-2.1593,-2.1633,-2.1651,-2.1641,-2.1711,-2.1691,-2.1694,-2.1696,-2.1717,-2.1723,-2.1729,-2.165,-2.1649,-2.1649,0,0,-2.1464,-2.1477,-2.1508,-2.1521,-2.154,-2.1545,-2.1552,-2.157,-2.1575,-2.161,-2.1603,-2.1625,-2.1665,-2.1678,-2.169,-2.1742,-2.1734,-2.1749,-2.1774,-2.1796,-2.1801,-2.1806,-2.1824,-2.183,-2.1753,-2.1753,-2.1753,0,-2.1485,-2.1523,-2.1524,-2.1552,-2.1566,-2.1558,-2.1588,-2.1601,-2.1627,-2.1636,-2.1625,-2.1675,-2.1687,-2.1729,-2.1741,-2.1752,-2.176,-2.1746,-2.1801,-2.1806,-2.181,-2.1827,-2.1833,-2.1754,-2.1754,-2.1754,-2.1754,0,-2.1547,-2.1574,-2.1596,-2.1621,-2.1637,-2.1666,-2.1672,-2.1688,-2.1686,-2.1692,-2.1727,-2.1741,-2.1765,-2.1775,-2.1774,-2.1817,-2.181,-2.18,-2.178,-2.1819,-2.1834,-2.184,-2.1757,-2.1756,-2.1756,-2.1755,0,0,-2.1608,-2.1632,-2.1641,-2.1651,-2.1672,-2.1692,-2.172,-2.1744,-2.1757,-2.1775,-2.1799,-2.1833,-2.1823,-2.1837,-2.1837,-2.1856,-2.1894,-2.1843,-2.1843,-2.1851,-2.1941,-2.1948,-2.1955,-2.189,-2.1891,-2.1892,-2.1939,0,-2.1656,-2.1706,-2.1708,-2.1753,-2.1777,-2.1769,-2.1794,-2.1809,-2.1815,-2.1835,-2.1842,-2.1865,-2.1851,-2.1859,-2.1878,-2.1885,-2.1912,-2.1882,-2.1911,-2.1912,-2.1905,-2.1963,-2.1971,-2.2015,-2.1945,-2.1946,-2.1947,0,-2.1719,-2.1739,-2.1786,-2.1802,-2.1812,-2.1835,-2.1856,-2.1876,-2.1892,-2.1895,-2.191,-2.1907,-2.1935,-2.1915,-2.1953,-2.1933,-2.1945,-2.195,-2.1952,-2.1954,-2.1931,-2.1966,-2.2029,-2.2035,-2.1957,-2.1956,-2.1955,0,-2.1757,-2.1795,-2.1829,-2.1838,-2.1858,-2.1873,-2.1882,-2.1897,-2.1911,-2.193,-2.1939,-2.1961,-2.1972,-2.1989,-2.1992,-2.1977,-2.203,-2.201,-2.2032,-2.2032,-2.2043,-2.2043,-2.2108,-2.2052,-2.2052,-2.2052,-2.2052,0,-2.181,-2.184,-2.1846,-2.1866,-2.1898,-2.19,-2.1931,-2.1939,-2.1952,-2.1974,-2.1969,-2.1988,-2.1991,-2.2012,-2.2014,-2.2045,-2.205,-2.2053,-2.2053,-2.2053,-2.2053,-2.206,-2.2057,-2.2054,-2.2054,-2.2053,-2.2053,0,-2.1858,-2.1864,-2.1899,-2.1915,-2.1919,-2.1942,-2.1955,-2.1974,-2.198,-2.2006,-2.2013,-2.2021,-2.2045,-2.2049,-2.2077,-2.2079,-2.2115,-2.2113,-2.211,-2.2109,-2.2131,-2.2128,-2.2203,-2.2212,-2.2151,-2.2152,-2.2152,0,-2.1891,-2.1914,-2.1931,-2.1945,-2.1955,-2.1977,-2.1991,-2.1993,-2.2008,-2.2027,-2.2044,-2.2067,-2.2086,-2.2124,-2.2132,-2.2153,-2.2151,-2.2175,-2.2154,-2.2153,-2.215,-2.2148,-2.215,-2.2179,-2.218,-2.218,-2.2181,0,-2.1949,-2.1951,-2.1971,-2.1992,-2.2009,-2.2026,-2.2041,-2.2053,-2.2057,-2.2074,-2.2098,-2.2112,-2.214,-2.2163,-2.2184,-2.2193,-2.2187,-2.2188,-2.2194,-2.2193,-2.219,-2.2191,-2.212,-2.2186,-2.2185,-2.2185,-2.2185,-2.2184,-2.199,-2.2009,-2.2024,-2.2047,-2.2059,-2.2074,-2.2092,-2.2099,-2.2119,-2.2143,-2.2142,-2.2169,-2.2183,-2.2211,-2.2221,-2.2241,-2.2233,-2.2242,-2.2245,-2.2247,-2.2248,-2.2188,-2.2245,-2.2245,-2.2245,-2.2245,-2.2245,0,-2.2047,-2.2056,-2.2077,-2.2099,-2.2116,-2.211,-2.2127,-2.2142,-2.2165,-2.2179,-2.2197,-2.2225,-2.2246,-2.2256,-2.2278,-2.2292,-2.229,-2.2297,-2.2296,-2.2298,-2.2255,-2.2247,-2.2298,-2.2298,-2.2298,-2.2298,-2.2298,-2.2298,-2.2079,-2.211,-2.2113,-2.215,-2.2159,-2.2184,-2.2194,-2.2207,-2.2219,-2.2249,-2.2267,-2.2274,-2.2286,-2.2308,-2.2327,-2.233,-2.2337,-2.2346,-2.2347,-2.2306,-2.2301,-2.2296,-2.2288,-2.2348,-2.2348,-2.2388,-2.2389,-2.2389]}]]